Вернуться в каталог

STARLINK-37997

АктивенСвязьSSO
NORAD 69682·PAYLOAD·🇺🇸 United States

Запущен Jun 25, 2026 с Vandenberg Space Force Base

Loading…

Ближайшие Пролёты (ближайшие 24 часа)

TLE

СвежийSource: CelesTrak SupGP

Эпоха: Sep 14, 2026, 23:15 UTC

1 69682C 26145F   26257.96923611  .00085887  00000+0  26667-2 0  2579
2 69682  97.2847 104.6782 0001938  93.2898 258.3606 15.33388373    13

Отслеживайте STARLINK-37997 в реальном времени с AllMySat

Download on the App Store